Simultaneous Nadir Overpasses (SNOs) Predictions

Prediction of SNOs between FY3D and NOAA-19 Satellite Orbit:

Table of predicted SNOs for the next 14.0 days since TLE Epoch: 11/4/2022
Index Date (FY3D) Time (FY3D) Lat,Lon (FY3D) SZA (FY3D ) Date (NOAA-19) Time (NOAA-19) Lat,Lon (NOAA-19) SZA (NOAA-19 ) Distance(km) Time Diff (sec)
1 11/15/2022 21:51:41 -77.08, 18.64 84.18 11/15/2022 21:50:26 -77.07, 18.71 84.17 1.73 75
2 11/15/2022 22:42:28 77.08,-174.08 95.84 11/15/2022 22:41:27 77.08,-174.02 95.85 1.51 61
3 11/15/2022 23:33:13 -77.08, -6.78 84.15 11/15/2022 23:32:25 -77.10, -6.67 84.13 3.20 48
4 11/16/2022 00:24:00 77.09, 160.50 95.87 11/16/2022 00:23:26 77.10, 160.60 95.89 2.84 34
5 11/16/2022 01:14:45 -77.09, -32.20 84.12 11/16/2022 01:14:25 -77.08, -32.23 84.13 1.36 20
6 11/16/2022 02:05:32 77.10, 135.08 95.90 11/16/2022 02:05:26 77.09, 135.03 95.89 1.84 6
7 11/16/2022 02:56:17 -77.10, -57.62 84.09 11/16/2022 02:56:24 -77.11, -57.61 84.09 0.84 7
8 11/16/2022 03:47:04 77.11, 109.66 95.93 11/16/2022 03:47:25 77.11, 109.65 95.93 0.42 21
9 11/16/2022 04:37:49 -77.11, -83.04 84.07 11/16/2022 04:38:23 -77.14, -82.98 84.05 3.04 34
10 11/16/2022 05:28:36 77.12, 84.24 95.96 11/16/2022 05:29:24 77.14, 84.27 95.97 2.44 48
11 11/16/2022 06:19:21 -77.12,-108.46 84.04 11/16/2022 06:20:23 -77.12,-108.55 84.04 2.09 62
12 11/16/2022 07:10:09 77.21, 58.44 96.08 11/16/2022 07:11:22 77.16, 58.90 96.01 12.51 73



Historial Predications of SNOs between FY3D and NOAA-19
